Terminal Aerodrome Forecast
Issued by NWS Sterling, VA

Current Version | Previous Version | Graphics & Text | Print | Product List | Glossary On
Versions: 1 2 3 4 5 6 7 8 9 10 11 12 13 14 15 16 17 18 19 20 21 22 23
000
FTUS41 KLWX 302100 AAB
TAFIAD
TAF AMD
KIAD 302114Z 3021/3124 17006KT P6SM BKN035
     FM302300 16007KT P6SM SCT080
     FM310400 16006KT P6SM BKN080
     FM310900 19006KT 5SM BR BKN080
     FM311200 20007KT 3SM BR BKN090
     FM311300 20007KT P6SM BKN080=

USA.gov is the U.S. government's official web portal to all federal, state and local government web resources and services.